This demonstration page uses our WeatherBlox Daily Observations layout. Learn more.

Left ArrowRight Arrow

39.01783, -85.05884

Hourly Observations for August 3, 2021

Temp ( °F °C ) Dew Point ( °F °C ) Humidity (%) Winds ( mph kmh ) Pressure ( in mb ) Visibility ( mi km ) Precip ( " mm )
12:52 am 00:52 Clear 67 19.4 55 12.8 66 66 E 8 13 30.07 1018 10 16 N/A
1:52 am 01:52 Clear 67 19.4 55 12.8 66 66 ENE 5 7 30.07 1018 10 16 N/A
2:52 am 02:52 Clear 65 18.3 55 12.8 70 70 N 5 7 30.06 1018 10 16 N/A
3:52 am 03:52 Clear 64 17.8 55 12.8 73 73 NNE 3 6 30.05 1018 10 16 N/A
4:52 am 04:52 Clear 64 17.8 55 12.8 73 73 NE 6 9 30.04 1017 10 16 N/A
5:52 am 05:52 Clear 63 17.2 55 12.8 76 76 ENE 6 9 30.04 1017 10 16 N/A
6:52 am 06:52 Sunny 61 16.1 54 12.2 78 78 N N/A 30.06 1018 10 16 N/A
7:52 am 07:52 Mostly Sunny 65 18.3 55 12.8 70 70 NE 3 6 30.06 1018 10 16 N/A
8:52 am 08:52 Mostly Sunny 69 20.6 56 13.3 63 63 NE 6 9 30.07 1018 10 16 N/A
9:52 am 09:52 Sunny 73 22.8 55 12.8 53 53 ENE 7 11 30.07 1018 10 16 N/A
10:52 am 10:52 Mostly Sunny 76 24.4 53 11.7 45 45 ENE 9 15 30.06 1018 10 16 N/A
11:52 am 11:52 Partly Cloudy 79 26.1 52 11.1 39 39 NE 10 17 30.06 1018 10 16 N/A
12:52 pm 12:52 Mostly Cloudy 76 24.4 52 11.1 43 43 N 6 9 30.05 1018 10 16 N/A
1:52 pm 13:52 Mostly Cloudy 78 25.6 49 9.4 36 36 NNE 3 6 30.04 1017 10 16 N/A
2:52 pm 14:52 Mostly Cloudy 80 26.7 50 10 35 35 N 7 11 30.02 1017 10 16 N/A
3:52 pm 15:52 Mostly Cloudy 82 27.8 51 10.6 34 34 NNW 9 15 30.01 1016 10 16 N/A
4:52 pm 16:52 Partly Cloudy 82 27.8 51 10.6 34 34 NE 13 20 30.01 1016 10 16 N/A
5:52 pm 17:52 Partly Cloudy 80 26.7 51 10.6 37 37 NNW 7 11 30.01 1016 10 16 N/A
6:52 pm 18:52 Mostly Sunny 79 26.1 51 10.6 38 38 N 7 11 30.01 1016 10 16 N/A
7:52 pm 19:52 Mostly Sunny 79 26.1 49 9.4 35 35 NE 9 15 30.01 1016 10 16 N/A
8:52 pm 20:52 Mostly Clear 76 24.4 49 9.4 39 39 ENE 5 7 30.01 1016 10 16 N/A
9:52 pm 21:52 Mostly Clear 73 22.8 52 11.1 48 48 N 7 11 30.03 1017 10 16 N/A
10:52 pm 22:52 Clear 73 22.8 51 10.6 46 46 NNE 7 11 30.04 1017 10 16 N/A
11:52 pm 23:52 Clear 70 21.1 52 11.1 53 53 N 6 9 30.04 1017 10 16 N/A

Powered by AerisWeather